Slayton, MN

4:26 AM CST on January 17, 2018 (GMT -0600)
Slayton

Weather History for KDVP - February, 2014

Change the Weather History Date:

Monday, February 10, 2014

  Actual Average (KOTG) Record (KOTG)
Temperature  
Mean Temperature -8 °F -  
Max Temperature 0 °F 27 °F 56 °F (1977)
Min Temperature -17 °F 11 °F -19 °F (1975)
Degree Days  
Heating Degree Days 74    
Moisture  
Dew Point -15 °F    
Average Humidity 77    
Maximum Humidity 82    
Minimum Humidity 68    
Precipitation  
Precipitation 0.00 in - - ()
Sea Level Pressure  
Sea Level Pressure 30.40 in    
Wind  
Wind Speed 6 mph (WNW)    
Max Wind Speed 9 mph    
Max Gust Speed -    
Visibility 10 miles    
Events      
Averages and records for this station are not official NWS values.
T = Trace of Precipitation, MM = Missing Value Source: NWS Daily Summary

Daily Weather History Graph

Daily Weather History Graph

Search for Another Location

Airport or City:

Trip Planner

Search our weather history database for the weather conditions in past years. The results will help you decide how hot, cold, wet, or windy it might be!

Date:

Astronomy

Feb. 10, 2014 Rise Set
Actual Time 7:29 AM CST 5:46 PM CST
Civil Twilight 6:59 AM CST 6:16 PM CST
Nautical Twilight 6:25 AM CST 6:50 PM CST
Astronomical Twilight 5:51 AM CST 7:23 PM CST
Moon 2:12 PM CST (2/10) 4:26 AM CST (2/10)
Length of Visible Light 11h 16m
Length of Day
10h 16m
Waxing Gibbous, 85% of the Moon is Illuminated
Feb 10
Waxing Gibbous
Feb 14
Full
Feb 22
Last Quarter
Mar 1
New
Mar 8
First Quarter

Hourly Weather History & Observations

Time (CST) Temp. Windchill Dew Point Humidity Pressure Visibility Wind Dir Wind Speed Gust Speed Precip Events Conditions
12:14 AM -12.5 °F -26.3 °F -16.8 °F 81% 30.39 in 10.0 mi West 5.8 mph - N/A   Clear
12:34 AM -12.5 °F -28.0 °F -17.0 °F 80% 30.39 in 10.0 mi West 6.9 mph - N/A   Clear
12:54 AM -13.5 °F -27.6 °F -18.2 °F 80% 30.38 in 10.0 mi West 5.8 mph - N/A   Clear
1:14 AM -12.6 °F -26.6 °F -17.0 °F 81% 30.38 in 10.0 mi West 5.8 mph - N/A   Clear
1:34 AM -14.8 °F -30.8 °F -19.5 °F 79% 30.37 in 10.0 mi West 6.9 mph - N/A   Clear
1:54 AM -14.8 °F -32.2 °F -19.7 °F 79% 30.37 in 10.0 mi WNW 8.1 mph - N/A   Clear
2:14 AM -15.7 °F -33.3 °F -20.6 °F 79% 30.38 in 10.0 mi WNW 8.1 mph - N/A   Clear
2:34 AM -15.5 °F -31.6 °F -20.2 °F 79% 30.39 in 10.0 mi West 6.9 mph - N/A   Clear
2:54 AM -13.2 °F -28.8 °F -18.4 °F 77% 30.39 in 10.0 mi WNW 6.9 mph - N/A   Clear
3:14 AM -15.0 °F -33.7 °F -20.0 °F 78% 30.39 in 10.0 mi WNW 9.2 mph - N/A   Clear
3:34 AM -15.3 °F -34.1 °F -20.6 °F 77% 30.39 in 10.0 mi West 9.2 mph - N/A   Clear
3:54 AM -15.7 °F -34.6 °F -20.7 °F 78% 30.39 in 10.0 mi WNW 9.2 mph - N/A   Clear
4:14 AM -16.4 °F -32.7 °F -21.5 °F 78% 30.39 in 10.0 mi West 6.9 mph - N/A   Clear
4:33 AM -17.0 °F -31.7 °F -22.4 °F 76% 30.39 in 10.0 mi WNW 5.8 mph - N/A   Clear
4:54 AM -16.4 °F -31.0 °F -21.8 °F 76% 30.39 in 10.0 mi WNW 5.8 mph - N/A   Clear
5:14 AM -15.5 °F -34.4 °F -20.4 °F 79% 30.39 in 10.0 mi NW 9.2 mph - N/A   Clear
5:34 AM -17.5 °F -34.0 °F -22.7 °F 77% 30.39 in 10.0 mi NW 6.9 mph - N/A   Clear
5:54 AM -16.6 °F -32.9 °F -21.8 °F 77% 30.39 in 10.0 mi NNW 6.9 mph - N/A   Clear
6:14 AM -15.0 °F -31.0 °F -20.0 °F 78% 30.39 in 10.0 mi NW 6.9 mph - N/A   Clear
6:34 AM -12.6 °F -26.6 °F -17.5 °F 79% 30.38 in 10.0 mi NNW 5.8 mph - N/A   Clear
6:54 AM -13.2 °F -30.2 °F -18.2 °F 78% 30.38 in 10.0 mi NNW 8.1 mph - N/A   Clear
7:14 AM -12.3 °F -29.1 °F -17.0 °F 80% 30.38 in 10.0 mi NNW 8.1 mph - N/A   Clear
7:34 AM -13.0 °F -31.3 °F -18.0 °F 78% 30.38 in 10.0 mi North 9.2 mph - N/A   Clear
7:55 AM -12.3 °F -29.1 °F -17.0 °F 80% 30.39 in 10.0 mi NNW 8.1 mph - N/A   Clear
8:13 AM -11.9 °F -25.7 °F -16.6 °F 80% 30.39 in 10.0 mi NNW 5.8 mph - N/A   Clear
8:34 AM -13.2 °F -27.2 °F -18.0 °F 79% 30.41 in 10.0 mi West 5.8 mph - N/A   Clear
8:54 AM -11.4 °F -23.2 °F -16.1 °F 80% 30.42 in 10.0 mi West 4.6 mph - N/A   Clear
9:14 AM -10.3 °F -21.9 °F -14.8 °F 81% 30.42 in 10.0 mi WSW 4.6 mph - N/A   Clear
9:34 AM -9.4 °F -24.3 °F -13.9 °F 81% 30.43 in 10.0 mi WSW 6.9 mph - N/A   Clear
9:54 AM -9.4 °F -24.3 °F -14.1 °F 80% 30.43 in 10.0 mi WSW 6.9 mph - N/A   Clear
10:14 AM -7.6 °F -20.6 °F -12.3 °F 80% 30.43 in 10.0 mi West 5.8 mph - N/A   Clear
10:35 AM -6.7 °F -19.5 °F -11.6 °F 79% 30.43 in 7.0 mi West 5.8 mph - N/A   Clear
10:54 AM -5.8 °F -19.9 °F -11.4 °F 77% 30.44 in 7.0 mi West 6.9 mph - N/A   Clear
11:13 AM -5.8 °F -19.9 °F -12.1 °F 74% 30.43 in 10.0 mi WSW 6.9 mph - N/A   Clear
11:34 AM -4.9 °F -17.4 °F -11.6 °F 73% 30.43 in 10.0 mi West 5.8 mph - N/A   Clear
11:54 AM -4.0 °F -17.8 °F -11.0 °F 72% 30.43 in 10.0 mi West 6.9 mph - N/A   Clear
12:14 PM -3.6 °F -15.9 °F -10.7 °F 72% 30.42 in 10.0 mi West 5.8 mph - N/A   Clear
12:34 PM -3.1 °F -15.2 °F -10.1 °F 72% 30.42 in 10.0 mi West 5.8 mph - N/A   Clear
12:54 PM -2.2 °F -15.6 °F -9.2 °F 72% 30.42 in 10.0 mi West 6.9 mph - N/A   Clear
1:14 PM -1.7 °F -14.9 °F -9.2 °F 70% 30.41 in 10.0 mi West 6.9 mph - N/A   Clear
1:33 PM -0.9 °F -12.7 °F -8.9 °F 69% 30.40 in 10.0 mi West 5.8 mph - N/A   Clear
1:54 PM -0.8 °F -13.9 °F -8.5 °F 70% 30.40 in 10.0 mi West 6.9 mph - N/A   Clear
2:14 PM -0.4 °F -8.3 °F -8.5 °F 69% 30.39 in 10.0 mi West 3.5 mph - N/A   Clear
2:34 PM -0.2 °F -8.1 °F -8.3 °F 69% 30.39 in 10.0 mi West 3.5 mph - N/A   Clear
2:54 PM 0.5 °F -9.3 °F -7.8 °F 68% 30.40 in 10.0 mi WNW 4.6 mph - N/A   Clear
3:14 PM 0.5 °F -7.3 °F -7.6 °F 69% 30.40 in 10.0 mi WNW 3.5 mph - N/A   Clear
3:34 PM 0.9 °F -6.9 °F -7.4 °F 68% 30.40 in 10.0 mi WNW 3.5 mph - N/A   Clear
3:53 PM 0.5 °F -7.3 °F -7.2 °F 70% 30.40 in 10.0 mi NW 3.5 mph - N/A   Clear
4:14 PM 0.5 °F -7.3 °F -7.6 °F 69% 30.40 in 10.0 mi WNW 3.5 mph - N/A   Clear
4:34 PM 0.5 °F -9.3 °F -6.9 °F 71% 30.41 in 10.0 mi West 4.6 mph - N/A   Clear
4:54 PM -0.4 °F -10.4 °F -7.6 °F 72% 30.41 in 10.0 mi West 4.6 mph - N/A   Clear
5:14 PM -2.2 °F - -8.7 °F 74% 30.41 in 10.0 mi Calm Calm - N/A   Clear
5:35 PM -3.1 °F - -8.9 °F 76% 30.40 in 10.0 mi Calm Calm - N/A   Clear
5:54 PM -3.3 °F - -8.7 °F 78% 30.40 in 10.0 mi Calm Calm - N/A   Clear
6:13 PM -4.9 °F - -11.0 °F 75% 30.40 in 10.0 mi Calm Calm - N/A   Clear
6:34 PM -9.2 °F - -14.6 °F 77% 30.40 in 10.0 mi Calm Calm - N/A   Clear
6:54 PM -8.7 °F - -13.9 °F 78% 30.40 in 10.0 mi Calm Calm - N/A   Clear
7:14 PM -8.9 °F - -13.7 °F 79% 30.40 in 10.0 mi Calm Calm - N/A   Clear
7:34 PM -9.6 °F - -14.3 °F 80% 30.39 in 10.0 mi Calm Calm - N/A   Clear
7:54 PM -11.0 °F -20.4 °F -15.9 °F 79% 30.39 in 10.0 mi West 3.5 mph - N/A   Clear
8:14 PM -12.1 °F -21.7 °F -17.0 °F 79% 30.39 in 10.0 mi WSW 3.5 mph - N/A   Clear
8:33 PM -11.0 °F -20.4 °F -15.3 °F 81% 30.39 in 10.0 mi West 3.5 mph - N/A   Clear
8:54 PM -11.4 °F -20.8 °F -16.1 °F 80% 30.39 in 10.0 mi SW 3.5 mph - N/A   Clear
9:14 PM -13.7 °F - -18.9 °F 77% 30.39 in 10.0 mi Calm Calm - N/A   Clear
9:35 PM -11.9 °F - -17.7 °F 76% 30.39 in 10.0 mi Calm Calm - N/A   Clear
9:54 PM -12.1 °F -24.0 °F -16.2 °F 82% 30.40 in 10.0 mi WSW 4.6 mph - N/A   Clear
10:14 PM -11.6 °F - -16.1 °F 80% 30.39 in 10.0 mi Calm Calm - N/A   Clear
10:34 PM -11.7 °F -21.3 °F -15.9 °F 82% 30.39 in 10.0 mi WSW 3.5 mph - N/A   Clear
10:53 PM -11.7 °F -21.3 °F -15.9 °F 82% 30.39 in 10.0 mi WSW 3.5 mph - N/A   Clear
11:14 PM -9.9 °F - -14.6 °F 80% 30.39 in 10.0 mi Calm Calm - N/A   Clear
11:35 PM -9.8 °F -19.0 °F -14.8 °F 78% 30.38 in 10.0 mi South 3.5 mph - N/A   Clear
11:54 PM -10.8 °F - -15.7 °F 79% 30.37 in 10.0 mi Calm Calm - N/A   Clear